Tracking 35275 objects as of 8-Sep-2026
HD Live streaming from Space Station
objects crossing your sky now

FREGAT DEB

Track FREGAT DEB now!
10-day predictions


NORAD ID: 52956
Int'l Code: 2011-037PK
Launch date: July 18, 2011
Source: Commonwealth of Independent States (former USSR) (CIS)
Launch site: TYURATAM MISSILE AND SPACE COMPLEX (TTMTR)

Note: This is SATELLITE DEBRIS
Your satellite tracking list
Your tracking list is empty




NASA's NSSDC Master Catalog

Two Line Element Set (TLE):
1 52956U 11037PK  22254.48213184  .00006115  00000-0  47861-1 0  9995
2 52956  51.5601 278.7828 1798340 173.2228 189.6822 10.15403064 13099
Source of the keplerian elements: AFSPC